Regional Weather Roundup
Issued by NWS

Home | Current Version | Previous Version | Text Only | Print | Product List | Glossary Off
Versions: 1 2 3 4 5 6 7 8 9 10 11 12 13 14 15 16 17 18 19 20 21 22 23 24 25 26 27 28 29 30 31 32 33 34 35 36 37 38 39 40 41 42 43 44 45 46 47 48 49 50

000
ASUS43 KDTX 011910
RWRMI
MICHIGAN HOURLY REGIONAL WEATHER ROUNDUP
NATIONAL WEATHER SERVICE DETROIT/PONTIAC MI
ISSUED BY NATIONAL WEATHER SERVICE GRAND RAPIDS MI
200 PM EST WED MAR 01 2017

NOTE: "FAIR" INDICATES FEW OR NO CLOUDS BELOW 12,000 FEET WITH NO
SIGNIFICANT WEATHER AND/OR OBSTRUCTION TO VISIBILITY.

MIZ047>049-052>055-059>063-066>070-074>076-081>083-012000-
SOUTHEAST LOWER MICHIGAN

CITY           SKY/WX    TMP DP  RH WIND       PRES   REMARKS
ADRIAN         CLOUDY    53  46  77 W23G36    29.40S
ALMA           CLOUDY    42  41  97 W8        29.33R
ANN ARBOR      CLOUDY    54  48  80 SW24G32   29.35S
BAD AXE        LGT SNOW  34  34  99 N13G20    29.31F WCI  25
DETROIT CITY   LGT RAIN  55  52  89 SW17G23   29.32F
DETROIT        LGT RAIN  55  51  86 SW20G28   29.35F
FLINT          LGT RAIN  51  47  86 W15G26    29.30F
GROSSE ILE     LGT RAIN  54  50  87 W21G31    29.34S
HILLSDALE      CLOUDY    45  43  93 W20G39    29.43R FOG
HOWELL         CLOUDY    51  46  83 W18G30    29.33R

CITY           SKY/WX    TMP DP  RH WIND       PRES   REMARKS
JACKSON        CLOUDY    47  40  76 W25G40    29.39R
LANSING        CLOUDY    46  39  76 W24G37    29.37R
MASON          CLOUDY    48  44  85 W22G36    29.37R
MONROE         CLOUDY    55  52  88 W20       29.36R
MT. CLEMENS    MOSUNNY   56  55  95 SW17G23   29.28F
PONTIAC        LGT RAIN  53  49  86 SW16G24   29.29F
PORT HOPE        N/A     33  32  96 N13G23    29.32S WCI  24
PORT HURON     RAIN      54  52  94 SW8       29.28F
TRI CITIES     LGT RAIN  36  35  96 NE21      29.32F WCI  25
YPSILANTI      CLOUDY    56  51  84 W24G35    29.34F
$$
MIZ043>046-050>051-056>058-064>065-071>073-077>080-012000-
SOUTHWEST LOWER MICHIGAN

CITY           SKY/WX    TMP DP  RH WIND       PRES   REMARKS
BATTLE CREEK   CLOUDY    41  37  86 W18G30    29.44R
BENTON HARBOR  CLOUDY    36  33  89 W15G30    29.57R WCI  27
BIG RAPIDS     LGT SNOW  35  34  96 NW10      29.35R WCI  27
COLDWATER      CLOUDY    42  40  89 W21G29    29.47R
HOLLAND        CLOUDY    36  33  89 W22G32    29.50R WCI  25
GRAND RAPIDS   CLOUDY    37  33  85 W28G38    29.41R WCI  25
KALAMAZOO      CLOUDY    39  33  79 W21G32    29.48R WCI  29
MARSHALL       CLOUDY    42  39  89 W18G31    29.43R
MOUNT PLEASANT LGT RAIN  38  37  99 NE8       29.31F WCI  32
MUSKEGON       LGT SNOW  34  32  92 NW16G32   29.46R FOG     WCI  24
STURGIS        CLOUDY    40  37  89 W20G28    29.50R WCI  30
$$
MIZ016>042-012000-
NORTHERN LOWER MICHIGAN

CITY           SKY/WX    TMP DP  RH WIND       PRES   REMARKS
ALPENA         FOG       22  21  96 N14G25    29.43F VSB 1/4 WCI   9
BEAVER ISLAND  CLOUDY    21  19  93 N15G24    29.52F WCI   7
BELLAIRE       LGT SNOW  23  21  89 NE8G21    29.47R VSB 1   WCI  14
CADILLAC       LGT SNOW  28  26  89 N13G20    29.36R WCI  18
CHARLEVOIX     LGT SNOW  22  22  98 NE10G21   29.52R VSB 3/4 WCI  11
GAYLORD        SNOW      22  18  85 NE13G20   29.41S VSB 1/2 WCI  10
HOUGHTON LAKE  LGT SNOW  27  23  85 N14G22    29.37S FOG     WCI  16
MANISTEE       LGT SNOW  29  27  92 N9        29.47R VSB 3/4 WCI  20
OSCODA         CLOUDY    29  26  88 N22G28    29.36F WCI  15
PELLSTON       HAZE      20  15  81 NE14G23   29.49F VSB 1/2 WCI   7
TRAVERSE CITY  LGT SNOW  26  23  88 N14       29.45R VSB 3/4 WCI  14
LUDINGTON      LGT SNOW  30  29  96 N16G24    29.47R WCI  19
$$
MIZ007>008-015-012000-
EASTERN UPPER MICHIGAN

CITY           SKY/WX    TMP DP  RH WIND       PRES   REMARKS
KINROSS        SNOW      17  14  88 MISG      29.51F VSB 1/2
MACKINAC ISLAN   N/A     19  19 100 N21G26    29.50R WCI   2
NEWBERRY       LGT SNOW  18  16  92 N17       29.56S WCI   3
S. S. MARIE    LGT SNOW  20  13  74 NE9G23    29.52F WCI   9
$$
MIZ004>006-011>014-085-012000-
CENTRAL UPPER MICHIGAN

CITY           SKY/WX    TMP DP  RH WIND       PRES   REMARKS
MANISTIQUE     LGT SNOW  22  20  93 N21G29    29.56S WCI   6
ESCANABA       LGT SNOW  23  19  85 N14G24    29.61R FOG     WCI  11
MENOMINEE      LGT SNOW  25  22  88 N12G18    29.62R VSB 3/4 WCI  14
SAWYER-GWINN   LGT SNOW  19  16  86 N18G29    29.65S VSB 1   WCI   4
$$
MIZ001>003-009>011-084-012000-
WESTERN UPPER MICHIGAN

CITY           SKY/WX    TMP DP  RH WIND       PRES   REMARKS
IRON MOUNTAIN  MIX PCPN  23  14  68 N23G30    29.65R WCI   7
HOUGHTON       FLURRIES  20  11  68 N21       29.78R WCI   4
COPPER HARBOR    N/A     21  15  78 E23G30    29.81F WCI   5
IRONWOOD       FLURRIES  21  17  84 N12G18    29.83R WCI   9
$$

ABBREVIATIONS USED IN REMARKS
   TC - TEMPERATURE IN CELSIUS
  WCI - WIND CHILL INDEX
   HX - HEAT INDEX
  VSB - VISIBILITY




USA.gov is the U.S. government's official web portal to all federal, state and local government web resources and services.